Regional Weather Roundup
Issued by NWS

Home | Current Version | Previous Version | Text Only | Print | Product List | Glossary Off
Versions: 1 2 3 4 5 6 7 8 9 10 11 12 13 14 15 16 17 18 19 20 21 22 23 24 25 26 27 28 29 30 31 32 33 34 35 36 37 38 39 40 41 42 43 44 45 46 47 48 49 50

000
ASUS43 KBIS 061310
RWRND

NORTH DAKOTA REGIONAL WEATHER ROUNDUP
NATIONAL WEATHER SERVICE BISMARCK ND
700 AM CST TUE DEC 06 2016

NOTE: "FAIR" INDICATES FEW OR NO CLOUDS BELOW 12,000 FEET WITH NO
SIGNIFICANT WEATHER AND/OR OBSTRUCTIONS TO VISIBILITY.


NDZ001>003-009>011-017-061400-
NORTHWEST NORTH DAKOTA

CITY           SKY/WX    TMP DP  RH WIND       PRES   REMARKS
WILLISTON      CLOUDY     6  -1  73 NW18G25   30.00S WCI -13
MINOT          SNOW      10   7  87 W39G48    29.76R VSB 1/4 WCI -15
$$

NDZ018>021-031>035-040>046-061400-
SOUTHWEST NORTH DAKOTA

CITY           SKY/WX    TMP DP  RH WIND       PRES   REMARKS
BISMARCK       LGT SNOW  10   8  92 NW25G39   29.80R VSB 1   WCI -11
DICKINSON      MIX PCPN   3  -2  79 NW30G39   29.87R WCI -22
GARRISON         N/A      8   5  87 MISG      29.77R
HETTINGER ARPT CLOUDY     5  -1  76 NW30G38   29.90S WCI -19
$$

NDZ004>008-012>016-024-026-027-054-061400-
NORTHEAST NORTH DAKOTA

CITY           SKY/WX    TMP DP  RH WIND       PRES   REMARKS
GRAND FORKS    LGT SNOW  30  27  88 NW24      29.30S VSB 1   WCI  16
GRND FRKS AFB  MIX PCPN  28  27  93 N22G30    29.31F FOG     WCI  15
DEVILS LAKE    SNOW      21  19  92 MISG      29.47R VSB 1/2
$$

NDZ022-023-025-028>030-036>039-047>053-061400-
SOUTHEAST NORTH DAKOTA

CITY           SKY/WX    TMP DP  RH WIND       PRES   REMARKS
FARGO          LGT SNOW  30  26  85 W24       29.38S FOG     WCI  16
JAMESTOWN      SNOW      18  15  88 NW36G46   29.53R VSB 1/2 WCI  -3
$$





USA.gov is the U.S. government's official web portal to all federal, state and local government web resources and services.